#timestamp,LO_Frequency,Hit,StdDev 
1700650815.5,286046998.8,P
1700650835.3,286046998.9,N
1700650855.2,286046998.5,N
1700650875.9,286047001.1,N
1700650895.7,286046998.2,N
1700650915.6,286047000.6,N
1700650935.4,286047000.9,N
1700650955.2,286046999.2,N
1700650975.1,286046997.2,N
1700650976.0,286046997.2,N
1700650995.8,286046999.2,N
1700651015.7,286046999.2,N
1700651035.5,286046998.7,N
1700651055.3,286046998.9,N
1700651075.2,286046999.5,N
1700651095.0,286047000.7,N
1700651095.9,286047000.7,N
1700651115.8,286046998.3,N
1700651135.6,286046998.6,N
1700651155.4,286046998.4,N
1700651175.3,286046998.9,N
1700651195.1,286046998.5,N
1700651196.0,286046998.5,N
1700651215.8,286047000.5,N
1700651235.7,286047001.0,N
1700651255.5,286047000.4,N
1700651275.3,286047000.3,N
1700651295.2,286047000.2,N
1700651315.0,286047001.0,N
1700651315.9,286047001.0,N
1700651335.8,286046998.2,N
1700651355.6,286047001.0,N
1700651375.4,286047000.9,N
1700651395.3,286047001.0,N
1700651415.1,286047001.2,N
1700651435.9,286047001.0,N
1700651455.7,286046998.6,N
1700651475.5,286046998.1,N
1700651495.4,286047000.4,N
1700651515.2,286047001.0,N
1700651535.0,286047001.0,N
1700651535.9,286047001.0,N
1700651555.8,286047001.1,N
1700651575.6,286047000.8,N
1700651595.4,286046998.5,N
1700651615.3,286047000.0,N
1700651635.1,286047000.7,N
1700651655.9,286047001.1,N
1700651675.7,286046998.8,N
1700651695.5,286047000.8,N
1700651715.4,286047000.6,N
1700651735.2,286047000.1,N
1700651755.0,286047000.4,N
1700651756.0,286047000.4,N
1700651775.8,286047000.7,N
1700651795.6,286046999.9,N
1700651815.5,286046999.9,N
1700651835.3,286047000.0,N
1700651855.1,286047000.2,N
1700651875.9,286047002.1,N
1700651895.7,286046999.7,N
1700651915.6,286047001.5,N
1700651935.4,286047003.8,Y
1700651955.2,286047004.3,P
1700651975.1,286047001.4,N
1700651976.0,286047001.4,N
1700651995.8,286047002.0,N
1700652015.6,286047003.3,N
1700652035.5,286047002.9,N
1700652055.3,286047004.4,Y
1700652075.2,286046998.9,P
1700652095.9,286046998.6,N
1700652115.7,286046999.3,N
1700652135.6,286046998.9,N
1700652155.4,286047000.7,N
1700652175.2,286047000.3,N
1700652195.1,286047001.1,N
1700652196.0,286047001.1,N
1700652215.8,286047000.8,N
1700652235.7,286047000.6,N
1700652255.5,286047001.1,N
1700652275.3,286046999.0,N
1700652295.2,286046998.8,N
1700652315.0,286047000.8,N
1700652315.9,286047000.8,N
1700652335.8,286047000.6,N
1700652355.6,286047001.1,N
1700652375.4,286046999.6,N
1700652395.3,286046999.4,N
1700652415.1,286046998.5,N
1700652435.9,286046998.7,N
1700652455.7,286046998.7,N
1700652475.5,286046998.5,N
1700652495.4,286046999.0,N
1700652515.2,286046997.0,N
1700652535.0,286046996.6,N
1700652535.9,286046996.6,N
1700652555.8,286046999.5,N
1700652575.6,286046998.4,N
1700652595.5,286047000.9,N
1700652615.3,286047000.9,N
1700652635.1,286046998.9,N
1700652655.9,286046999.6,N
1700652675.7,286046997.0,N
1700652695.5,286046997.4,N
1700652715.4,286046997.2,N
1700652735.2,286046998.1,N
1700652755.1,286046999.1,N
1700652756.0,286046999.1,N
1700652775.8,286047000.5,N
1700652795.6,286047002.8,N
1700652815.5,286046998.8,N
1700652835.3,286046999.0,N
1700652855.1,286046999.0,N
1700652875.9,286047000.5,N
1700652895.7,286047000.6,N
1700652915.6,286047000.9,N
1700652935.4,286046999.9,N
1700652955.2,286047002.8,N
1700652975.1,286047003.9,N
1700652976.0,286047003.9,N
1700652995.8,286046999.7,N
1700653015.6,286047001.2,N
1700653035.5,286046998.3,N
1700653055.3,286047000.3,N
1700653075.2,286047000.5,N
1700653095.9,286047000.8,N
1700653115.7,286046998.1,N
1700653135.6,286047000.1,N
1700653155.4,286047000.2,N
1700653175.3,286047000.8,N
1700653195.1,286047000.1,N
1700653196.0,286047000.1,N
1700653215.8,286047000.0,N
1700653235.7,286047000.7,N
1700653285.5,286046998.5,E
1700653295.5,286046998.6,N
1700653315.3,286047000.0,P
1700653335.1,286047002.6,P
1700653355.9,286047002.3,N
1700653375.7,286047002.0,N
1700653395.5,286047001.7,N
1700653415.4,286047004.2,N
1700653435.2,286047002.9,N
1700653455.1,286047004.2,N
1700653456.0,286047004.2,N
1700653475.8,286047004.0,N
1700653495.6,286047004.3,N
1700653515.5,286047003.5,N
1700653535.3,286047003.3,N
1700653555.1,286047004.2,N
1700653575.9,286047003.3,N
1700653595.7,286047004.1,N
1700653615.6,286047004.0,N
1700653635.4,286047003.1,N
1700653655.2,286047005.4,Y
1700653675.1,286047002.5,P
1700653676.0,286047002.5,P
1700653695.8,286047002.7,P
1700653715.6,286047000.4,N
1700653735.5,286047000.1,N
1700653755.3,286047000.3,N
1700653775.2,286047000.5,N
1700653795.9,286047001.5,N
1700653815.7,286047004.3,Y
1700653835.6,286047002.0,P
1700653855.4,286047002.8,P
1700653875.2,286047000.3,N
1700653895.1,286047000.6,N
1700653896.0,286047000.6,N
1700653915.8,286046998.1,N
1700653935.7,286047001.0,N
1700653955.5,286047000.6,N
1700653975.3,286047001.1,N
1700653995.2,286046998.6,N
1700654015.0,286047000.8,N
1700654015.9,286047000.8,N
1700654035.7,286047000.3,N
1700654055.6,286047000.4,N
1700654075.4,286047000.2,N
1700654095.3,286046998.1,N
1700654115.1,286047000.8,N
1700654116.0,286047000.8,N
1700654135.8,286047000.2,N
1700654155.7,286047000.1,N
1700654175.5,286047000.9,N
1700654195.3,286047000.5,N
1700654215.2,286047000.0,N
1700654235.0,286047002.0,N
1700654235.9,286047002.0,N
1700654255.8,286047001.8,N
1700654275.6,286047001.1,N
1700654295.4,286046998.6,N
1700654315.3,286047000.6,N
1700654335.1,286047001.9,N
1700654355.8,286047002.8,N
1700654375.7,286047000.4,N
1700654395.5,286047002.5,N
